(70) Panopaea

Orbital Elements

The following orbital elements are taken from MPO 2601
   (70) Panopaea
Epoch 2001 Apr. 1.0 TT = JDT 2452000.5                  Williams
M 332.56993              (2000.0)            P               Q
n   0.23304354     Peri.  255.28449     +0.53367693     +0.83244259
a   2.6152387      Node    47.96587     -0.67795416     +0.52651259
e   0.1833529      Incl.   11.57966     -0.50553644     +0.17269578
P   4.23           H    8.11          G   0.14           U   1
From 276 observations at 43 oppositions, 1866-2000, mean residual 0".80.
An explanation of the orbital elements is available.

These orbital elements are also available in forms suitable for loading into a number of popular planetarium-type software programs.


Ephemeris

The following ephemeris is at intervals of five days. A daily ephemeris covering the same time interval is also available.

Date    TT    R. A. (2000) Decl.     Delta      r     Elong.  Phase     V
 
2001 05 21    20 44.17   -31 27.1    1.540    2.163   114.3    25.3    11.9
2001 05 26    20 48.76   -31 56.0    1.489    2.159   118.0    24.5    11.8
2001 05 31    20 52.65   -32 28.3    1.440    2.155   121.9    23.5    11.7
2001 06 05    20 55.80   -33 04.0    1.395    2.152   125.9    22.5    11.6
2001 06 10    20 58.15   -33 43.1    1.352    2.149   129.9    21.2    11.5
2001 06 15    20 59.65   -34 25.2    1.312    2.147   134.1    19.9    11.4
2001 06 20    21 00.24   -35 09.8    1.277    2.144   138.2    18.4    11.3
2001 06 25    20 59.91   -35 56.2    1.245    2.142   142.4    16.8    11.1
2001 06 30    20 58.65   -36 43.2    1.218    2.140   146.5    15.2    11.0
2001 07 05    20 56.49   -37 29.6    1.195    2.139   150.4    13.6    10.9
2001 07 10    20 53.49   -38 14.2    1.177    2.138   153.9    12.1    10.9
2001 07 15    20 49.73   -38 55.2    1.165    2.137   156.7    10.8    10.8
2001 07 20    20 45.36   -39 31.4    1.158    2.136   158.6    10.0    10.7
2001 07 25    20 40.56   -40 01.2    1.156    2.136   159.1     9.8    10.7
2001 07 30    20 35.56   -40 23.6    1.160    2.136   158.2    10.2    10.7
2001 08 04    20 30.59   -40 38.0    1.169    2.136   156.0    11.1    10.8
2001 08 09    20 25.87   -40 44.1    1.184    2.137   152.9    12.5    10.9
2001 08 14    20 21.61   -40 41.9    1.203    2.138   149.3    14.0    11.0
2001 08 19    20 17.98   -40 31.9    1.228    2.139   145.3    15.6    11.1
2001 08 24    20 15.15   -40 14.7    1.257    2.140   141.2    17.2    11.2
2001 08 29    20 13.20   -39 51.1    1.290    2.142   137.0    18.8    11.3
2001 09 03    20 12.19   -39 22.0    1.327    2.144   132.8    20.2    11.4
2001 09 08    20 12.11   -38 48.3    1.367    2.146   128.7    21.5    11.5
2001 09 13    20 12.96   -38 10.6    1.411    2.149   124.6    22.7    11.6
2001 09 18    20 14.70   -37 29.7    1.458    2.152   120.7    23.7    11.7
2001 09 23    20 17.29   -36 45.9    1.507    2.155   116.8    24.6    11.8
2001 09 28    20 20.66   -35 59.7    1.559    2.158   113.1    25.3    11.9

Back to Bright Minor Planets

Astronomical Headlines Index

MPC